Hat Yai, Thailand

1:35 PM +07 on December 13, 2017 (GMT +0700)
Hat Yai International

Weather History for VTSS - November, 2013

Change the Weather History Date:

Saturday, November 23, 2013

  Actual Average Record
Temperature  
Mean Temperature 81 °F -  
Max Temperature 90 °F 83 °F 91 °F (2006)
Min Temperature 72 °F 73 °F 71 °F (2000)
Cooling Degree Days 16    
Growing Degree Days 31 (Base 50)    
Moisture  
Dew Point 73 °F    
Average Humidity 81    
Maximum Humidity 100    
Minimum Humidity 47    
Precipitation  
Precipitation 1.73 in - - ()
Sea Level Pressure  
Sea Level Pressure 29.77 in    
Wind  
Wind Speed 2 mph ()    
Max Wind Speed 8 mph    
Max Gust Speed -    
Visibility 5.4 miles    
Events Rain , Thunderstorm    
Averages and records for this station are not official NWS values.
T = Trace of Precipitation, MM = Missing Value Source: Averaged Metar Reports

Daily Weather History Graph

Daily Weather History Graph

Search for Another Location

Airport or City:

Trip Planner

Search our weather history database for the weather conditions in past years. The results will help you decide how hot, cold, wet, or windy it might be!

Date:

Astronomy

Nov. 23, 2013 Rise Set
Actual Time 6:11 AM +07 5:57 PM +07
Civil Twilight 5:49 AM +07 6:20 PM +07
Nautical Twilight 5:23 AM +07 6:45 PM +07
Astronomical Twilight 4:57 AM +07 7:11 PM +07
Moon 10:36 PM +07 (11/23) 10:27 AM +07 (11/23)
Length of Visible Light 12h 30m
Length of Day
11h 46m
Waning Gibbous, 74% of the Moon is Illuminated
Nov 23
Waning Gibbous
Nov 26
Last Quarter
Dec 3
New
Dec 9
First Quarter
Dec 17
Full

Hourly Weather History & Observations

Time (+07) Temp. Heat Index Dew Point Humidity Pressure Visibility Wind Dir Wind Speed Gust Speed Precip Events Conditions
12:00 AM 73.4 °F - 71.6 °F 94% 29.77 in 4.3 mi Calm Calm - N/A   Mostly Cloudy
12:30 AM 73.4 °F - 71.6 °F 94% 29.77 in 4.3 mi Calm Calm - N/A   Mostly Cloudy
1:00 AM 73 °F - 71 °F 92% 29.76 in 4 mi Calm Calm - -   Mist
1:00 AM 73.4 °F - 71.6 °F 94% 29.77 in 4.3 mi Calm Calm - N/A   Mostly Cloudy
1:30 AM 73.4 °F - 71.6 °F 94% 29.74 in 4.3 mi Calm Calm - N/A   Mostly Cloudy
2:00 AM 73.4 °F - 71.6 °F 94% 29.74 in 4.3 mi Calm Calm - N/A   Mostly Cloudy
2:30 AM 73.4 °F - 71.6 °F 94% 29.74 in 4.3 mi Calm Calm - N/A   Mostly Cloudy
3:00 AM 73.4 °F - 71.6 °F 94% 29.74 in 4.3 mi Calm Calm - N/A   Mostly Cloudy
3:30 AM 73.4 °F - 71.6 °F 94% 29.74 in 4.3 mi Calm Calm - N/A   Mostly Cloudy
4:00 AM 73 °F - 71 °F 92% 29.75 in 4 mi Calm Calm - -   Mist
4:00 AM 73.4 °F - 71.6 °F 94% 29.74 in 4.3 mi Calm Calm - N/A   Mostly Cloudy
4:30 AM 73.4 °F - 71.6 °F 94% 29.74 in 4.3 mi Calm Calm - N/A   Mostly Cloudy
5:00 AM 73.4 °F - 71.6 °F 94% 29.74 in 4.3 mi Calm Calm - N/A   Mostly Cloudy
5:30 AM 73.4 °F - 71.6 °F 94% 29.74 in 4.3 mi Calm Calm - N/A   Mostly Cloudy
6:00 AM 73.4 °F - 71.6 °F 94% 29.77 in 5.6 mi Calm Calm - N/A   Mostly Cloudy
6:30 AM 73.4 °F - 71.6 °F 94% 29.77 in 6.2 mi Calm Calm - N/A   Mostly Cloudy
7:00 AM 74 °F - 72 °F 93% 29.79 in 6 mi Calm Calm - -   Partly Cloudy
7:00 AM 73.4 °F - 73.4 °F 100% 29.77 in 6.2 mi Calm Calm - N/A   Mostly Cloudy
7:30 AM 75.2 °F - 73.4 °F 94% 29.77 in 6.2 mi Calm Calm - N/A   Mostly Cloudy
8:00 AM 77.0 °F - 75.2 °F 94% 29.80 in 6.2 mi WSW 3.5 mph - N/A   Mostly Cloudy
8:30 AM 78.8 °F - 73.4 °F 83% 29.80 in 6.2 mi Calm Calm - N/A   Mostly Cloudy
9:00 AM 80.6 °F 86.2 °F 75.2 °F 84% 29.80 in 6.2 mi SW 5.8 mph - N/A   Mostly Cloudy
9:30 AM 82.4 °F 89.5 °F 75.2 °F 79% 29.83 in 6.2 mi South 2.3 mph - N/A   Mostly Cloudy
10:00 AM 85 °F - 75 °F 65% 29.83 in 6 mi Calm Calm - -   Scattered Clouds
10:00 AM 86.0 °F 95.1 °F 75.2 °F 70% 29.83 in 6.2 mi Calm Calm - N/A   Mostly Cloudy
10:30 AM 86.0 °F 93.4 °F 73.4 °F 66% 29.80 in 6.2 mi ESE 3.5 mph - N/A   Mostly Cloudy
11:00 AM 86.0 °F 91.8 °F 71.6 °F 62% 29.80 in 6.2 mi South 3.5 mph - N/A   Mostly Cloudy
11:30 AM 87.8 °F 95.6 °F 73.4 °F 62% 29.80 in 6.2 mi ESE 5.8 mph - N/A   Mostly Cloudy
12:00 PM 87.8 °F 93.8 °F 71.6 °F 58% 29.77 in 6.2 mi East 3.5 mph - N/A   Mostly Cloudy
12:30 PM 87.8 °F 95.6 °F 73.4 °F 62% 29.77 in 6.2 mi SW 5.8 mph - N/A   Mostly Cloudy
1:00 PM 89 °F - 72 °F 49% 29.76 in 6 mi East 3.5 mph - -   Partly Cloudy
1:00 PM 89.6 °F 96.2 °F 71.6 °F 55% 29.74 in 6.2 mi East 3.5 mph - N/A   Mostly Cloudy
1:30 PM 89.6 °F 98.2 °F 73.4 °F 59% 29.74 in 6.2 mi SSE 4.6 mph - N/A   Mostly Cloudy
2:00 PM 89.6 °F 94.7 °F 69.8 °F 52% 29.71 in 6.2 mi South 5.8 mph - N/A   Mostly Cloudy
2:30 PM 91.4 °F 98.4 °F 71.6 °F 52% 29.71 in 6.2 mi South 5.8 mph - N/A   Mostly Cloudy
3:00 PM 89.6 °F 96.2 °F 71.6 °F 55% 29.68 in 6.2 mi SSW 4.6 mph - N/A   Mostly Cloudy
3:30 PM 89.6 °F 96.2 °F 71.6 °F 55% 29.68 in 6.2 mi SW 6.9 mph - N/A   Mostly Cloudy
4:00 PM 90 °F - 72 °F 47% 29.70 in 6 mi West 8.1 mph - -   Partly Cloudy
4:00 PM 89.6 °F 96.2 °F 71.6 °F 55% 29.68 in 6.2 mi West 8.1 mph - N/A   Mostly Cloudy
4:30 PM 89.6 °F 96.2 °F 71.6 °F 55% 29.68 in 6.2 mi WSW 4.6 mph - N/A   Mostly Cloudy
5:00 PM 86.0 °F 96.9 °F 77.0 °F 74% 29.71 in 6.2 mi NE 6.9 mph - N/A   Mostly Cloudy
5:30 PM 84.2 °F 92.3 °F 75.2 °F 74% 29.71 in 6.2 mi ENE 6.9 mph - N/A   Mostly Cloudy
6:00 PM 82.4 °F 89.5 °F 75.2 °F 79% 29.74 in 5.6 mi North 4.6 mph - N/A   Mostly Cloudy
6:30 PM 82.4 °F 89.5 °F 75.2 °F 79% 29.74 in 6.2 mi North 5.8 mph - N/A   Mostly Cloudy
7:00 PM 75 °F - 72 °F 89% 29.78 in 1 mi ESE 5.8 mph - - Rain , Thunderstorm Thunderstorms and Rain
7:00 PM 75.2 °F - 71.6 °F 89% 29.77 in 0.6 mi ESE 5.8 mph - N/A Rain Rain
7:30 PM 75.2 °F - 73.4 °F 94% 29.80 in 4.3 mi North 6.9 mph - N/A Rain Rain
8:00 PM 77.0 °F - 73.4 °F 89% 29.80 in 5.6 mi West 3.5 mph - N/A Rain Light Rain
8:30 PM 77.0 °F - 75.2 °F 94% 29.80 in 6.2 mi West 4.6 mph - N/A   Mostly Cloudy
9:00 PM 77.0 °F - 75.2 °F 94% 29.83 in 6.2 mi WNW 5.8 mph - N/A   Mostly Cloudy
9:30 PM 77.0 °F - 75.2 °F 94% 29.83 in 6.2 mi WSW 3.5 mph - N/A   Mostly Cloudy
10:00 PM 77.0 °F - 75.2 °F 94% 29.83 in 6.2 mi West 3.5 mph - N/A   Mostly Cloudy
10:30 PM 77.0 °F - 75.2 °F 94% 29.83 in 6.2 mi WNW 3.5 mph - N/A   Mostly Cloudy
11:00 PM 77.0 °F - 75.2 °F 94% 29.83 in 5.0 mi Calm Calm - N/A Rain Light Rain
11:30 PM 77.0 °F - 75.2 °F 94% 29.83 in 5.0 mi NNE 2.3 mph - N/A   Mostly Cloudy